TimeHST,TemperatureF,Dew PointF,Humidity,Sea Level PressureIn,VisibilityMPH,Wind Direction,Wind SpeedMPH,Gust SpeedMPH,PrecipitationIn,Events,Conditions,WindDirDegrees,DateUTC
12:16 AM,71.1,64.0,78,30.09,10.0,Calm,Calm,-,N/A,,Overcast,0,2013-06-04 10:16:00
12:53 AM,71.1,64.9,81,30.06,10.0,West,4.6,-,N/A,,Overcast,260,2013-06-04 10:53:00
1:53 AM,70.0,64.0,81,30.05,10.0,SW,3.5,-,N/A,,Overcast,220,2013-06-04 11:53:00
2:53 AM,71.1,63.0,75,30.05,10.0,Calm,Calm,-,N/A,,Overcast,0,2013-06-04 12:53:00
3:53 AM,70.0,61.0,73,30.05,10.0,SW,5.8,-,0.00,Rain,Light Rain,230,2013-06-04 13:53:00
4:53 AM,69.1,60.1,73,30.05,10.0,WSW,6.9,-,0.00,,Mostly Cloudy,240,2013-06-04 14:53:00
5:53 AM,70.0,61.0,73,30.05,10.0,SSW,3.5,-,N/A,,Mostly Cloudy,200,2013-06-04 15:53:00
6:53 AM,72.0,63.0,73,30.07,10.0,Calm,Calm,-,N/A,,Mostly Cloudy,0,2013-06-04 16:53:00
7:53 AM,75.0,63.0,66,30.08,10.0,NW,3.5,-,N/A,,Mostly Cloudy,310,2013-06-04 17:53:00
8:53 AM,79.0,64.0,60,30.08,10.0,NE,6.9,-,N/A,,Scattered Clouds,50,2013-06-04 18:53:00
9:53 AM,81.0,64.9,58,30.09,10.0,Variable,5.8,-,N/A,,Scattered Clouds,0,2013-06-04 19:53:00
10:53 AM,82.0,68.0,62,30.08,10.0,NE,16.1,-,N/A,,Mostly Cloudy,50,2013-06-04 20:53:00
11:53 AM,82.9,64.0,53,30.06,10.0,NE,15.0,-,N/A,,Mostly Cloudy,50,2013-06-04 21:53:00
12:53 PM,82.0,64.9,56,30.04,10.0,NE,13.8,-,N/A,,Mostly Cloudy,50,2013-06-04 22:53:00
1:53 PM,81.0,64.9,58,30.02,10.0,East,13.8,-,N/A,,Mostly Cloudy,80,2013-06-04 23:53:00
2:53 PM,81.0,63.0,54,30.01,10.0,ENE,11.5,-,N/A,,Mostly Cloudy,60,2013-06-05 00:53:00
3:53 PM,79.0,64.9,62,30.00,10.0,ENE,9.2,-,N/A,,Mostly Cloudy,70,2013-06-05 01:53:00
4:53 PM,80.1,63.0,56,30.00,10.0,NE,8.1,-,N/A,,Overcast,50,2013-06-05 02:53:00
5:53 PM,78.1,63.0,60,30.02,10.0,NE,6.9,-,N/A,,Mostly Cloudy,50,2013-06-05 03:53:00
6:41 PM,77.0,64.9,66,30.03,10.0,NE,5.8,-,N/A,,Mostly Cloudy,50,2013-06-05 04:41:00
6:53 PM,73.9,66.9,79,30.04,9.0,East,12.7,-,0.00,Rain,Light Rain,80,2013-06-05 04:53:00
7:08 PM,73.0,68.0,84,30.05,7.0,ENE,6.9,-,0.01,Rain,Rain,70,2013-06-05 05:08:00
7:53 PM,73.0,66.9,81,30.06,10.0,East,4.6,-,0.02,,Overcast,80,2013-06-05 05:53:00
8:53 PM,73.9,66.0,76,30.08,10.0,Calm,Calm,-,N/A,,Mostly Cloudy,0,2013-06-05 06:53:00
9:53 PM,73.9,66.9,79,30.09,10.0,WSW,4.6,-,N/A,,Mostly Cloudy,240,2013-06-05 07:53:00
10:53 PM,71.1,66.0,84,30.09,10.0,West,5.8,-,0.00,,Mostly Cloudy,270,2013-06-05 08:53:00
11:53 PM,71.1,66.9,87,30.08,10.0,West,5.8,-,N/A,,Partly Cloudy,270,2013-06-05 09:53:00